User: anonymous   Login
Location: Unspecified
(0.0000°N, 0.0000°E)
Time: 00:19:20
(UTC+00:00)
Language:

Meteor 1-23 - Orbit

View from above orbital plane
View from above orbital plane
View from above satellite
View from above satellite

Ground track
Ground track

The orbit data is extracted from the following two-line orbital elements,

1 08519U 75124A   18201.61744840 -.00000035  00000-0 -26691-4 0  9996
2 08519  81.2432  60.4644 0012616 229.2767 130.7310 14.10787882189818
Epoch (UTC): 20 July 2018 14:49:07
Eccentricity: 0.0012616
inclination: 81.2432°
perigee height: 847 km
apogee height: 866 km
right ascension of ascending node: 60.4644°
argument of perigee: 229.2767°
revolutions per day: 14.10787882
mean anomaly at epoch: 130.7310°
orbit number at epoch: 18981

The dashed part of the orbit path shows where the satellite is in the earth's shadow,  

DLR